Regional Weather Roundup
Issued by NWS Charleston, SC

Current Version | Previous Version | Text Only | Print | Product List | Glossary Off
Versions: 1 2 3 4 5 6 7 8 9 10 11 12 13 14 15 16 17 18 19 20 21 22 23 24 25 26 27 28 29 30 31 32 33 34 35 36 37 38 39 40 41 42 43 44 45 46 47 48 49 50

000
ASUS42 KCHS 210825
RWRCHS

REGIONAL WEATHER ROUNDUP
NATIONAL WEATHER SERVICE CHARLESTON SC
400 AM EDT THU AUG 21 2014

NOTE: "FAIR" INDICATES FEW OR NO CLOUDS BELOW 12,000 FEET WITH NO
SIGNIFICANT WEATHER AND/OR OBSTRUCTIONS TO VISIBILITY.

NOT ALL STATIONS ARE QUALITY CONTROLLED BY THE NATIONAL
WEATHER SERVICE. USE DATA WITH CAUTION...ESPECIALLY
DEWPOINT OBSERVATIONS.

SCZ027-030-031-034>040-042>050-210900-
...SOUTH CAROLINA...

CITY           SKY/WX    TMP DP  RH WIND       PRES   REMARKS
N CHARLESTON   MOCLDY    80  72  76 W3        30.01S
WATERFRONT PRK   N/A     81 N/A N/A W3          N/A
FORT JOHNSON   NOT AVBL
MOUNT PLEASANT FAIR      77  75  94 CALM      30.00S
JOHNS ISLAND   SUNNY     79  75  89 CALM      30.01S
PINOPOLIS        N/A     82  72  69 W6        29.92F
MONCKS CORNER    N/A     75  75 100 CALM      30.00S
SUMMERVILLE    FAIR      73  73 100 CALM      30.02S
BEAUFORT MCAS  PTCLDY    77  70  79 N5        30.03R
BEAUFORT ARPT  FAIR      77  72  83 W7        30.02S
HILTON HEAD IS CLEAR     77  72  83 SW3       30.04S
GEORGETOWN     NOT AVBL
WALTERBORO     PTSUNNY   75  75 100 CALM      30.02S
ORANGEBURG     MOCLDY    74  69  85 S3        30.01F
BARNWELL       FAIR      73  70  88 CALM      30.03S
AIKEN          FAIR      72  72 100 W6        30.06S
MANNING        FAIR      73 N/A N/A CALM      30.00S
KINGSTREE      NOT AVBL
COLUMBIA       PTCLDY    76  70  82 W3        29.99F
SUMTER         PTCLDY    78  72  82 NW3       29.98F
FLORENCE       CLEAR     75  73  93 CALM      29.99S
MYRTLE BEACH   CLEAR     81  73  78 SW3       29.99F
N MYRTLE BEACH CLEAR     77  75  93 CALM      29.99S FOG

$$

GAZ063-065-086>088-099>101-113>116-118-119-134-136>141-150-210900-
...GEORGIA...

CITY           SKY/WX    TMP DP  RH WIND       PRES   REMARKS
SAVANNAH ARPT  CLEAR     75  69  81 W3        30.04S
HUNTER AAF     CLEAR     74  71  89 W3        30.02F
FORT STEWART   CLEAR     74  69  83 CALM      30.03F
STATESBORO     NOT AVBL
SYLVANIA       MOSUNNY   72  71  98 CALM      30.04S
CLAXTON        FAIR      72  72 100 CALM      30.04S
THOMSON        PTCLDY    72  72 100 CALM      30.09R
AUGUSTA-BUSH   PTCLDY    74  68  81 CALM      30.02S
AUGUSTA-DANIEL PTCLDY    76  68  76 W6        30.04S
SWAINSBORO     FAIR      73  73 100 CALM      30.05F
VIDALIA          N/A     72  70  94 CALM      30.06S
ALMA           CLEAR     73  70  90 CALM      30.05F
WAYCROSS       CLEAR     74  73  96 CALM      30.06F
JESUP            N/A     73  70  88 CALM      30.05S
BRUNSWICK      PTCLDY    77  68  73 W5        30.06S
SAINT SIMONS   PTCLDY    78  70  76 NW5       30.04F

$$

SCZ027-028-034-036>038-045-046-048>050-GAZ119-141-210900-
...LAKE AND SUPPLEMENTAL COASTAL OBSERVATIONS...

STATION/POSITION TIME  TEMP    WIND        PRES    WAVE   SWELL
                       AIR SEA DIR/SP/G            HT/PER HT/PER/DIR
                 (UTC) (F)     (DEG/KT/KT) (MB)    (FT/S) (FT/S/D)
UPR LAKE MARION  NOT AVBL
WINYAH BAY       0800   80        CALM     1015.0S
LAKE MURRAY      0700   80     270/  2/  4 1015.2F
ACE BASIN NERRS  0800   76     290/  1     1017.0R
FORT PULASKI     0800   78     240/  4/  5 1017.2F
SAPELO ISLAND    0800   78     280/  5     1018.0S

$$

ANZ835-935-AMZ111-154-330-350-352-354-374-450-454-472-210900-
...C-MAN AND BUOY OBSERVATIONS...

STATION/POSITION TIME  TEMP    WIND        PRES    WAVE   SWELL
                       AIR SEA DIR/SP/G            HT/PER HT/PER/DIR
                 (UTC) (F)     (DEG/KT/KT) (MB)    (FT/S) (FT/S/D)
FOLLY BEACH CMAN 0800   79     290/  3/  4 1016.5F
BUOY 41004       0800   83 83  230/ 12/ 14 1015.3F   3/ 5   2/ 8
BUOY 41008       0800   83 85  290/ 10/ 12 1016.9F   2/ 4   2/110/ 8
5E ST. MARYS GA  0800      83                N/A     1/ 9
FRYING PAN BUOY  NOT AVBL
BUOY 41025       0800   78     200/  4/  6 1015.6F   2/ 7   2/ 60/ 7
CAPE LOOKOUT NC  0800   80     210/  4/  5 1015.6F
BUOY 41002       0730   81 81  260/ 14/ 17 1017.5F   4/ 6   2/ 60/ 9
BUOY 41010       0800   84 85  190/ 14/ 14 1018.1S   2/ 3   2/140/ 7
BUOY 41012       NOT AVBL
ST AUGUSTINE FL  0800   76     250/  2/  3 1018.6F
CAPERS NEARSHORE 0700   84     290/  6/  8   N/A
FRIPP NEARSHORE  NOT AVBL


$$


USA.gov is the U.S. government's official web portal to all federal, state and local government web resources and services.